Location: Bílinka
(49.3579°N, 14.3767°E)
Time: 15:20:21
(UTC+00:00)

DMSP B5D2-2 - Visible Passes

Search period start: 30 September 2023 00:00
Search period end: 10 October 2023 00:00
Orbit: 789 x 803 km, 98.3° (Epoch: 30 September)

Date Brightness Start Highest point End Pass type
(mag) Time Alt. Az. Time Alt. Az. Time Alt. Az.
30 Sep 6.7 01:43:58 10° E 01:47:35 19° ENE 01:51:13 10° NNE visible
30 Sep 4.0 03:21:22 10° SSE 03:26:38 80° WSW 03:31:56 10° NNW visible
30 Sep 5.4 17:10:25 10° N 17:15:27 46° WNW 17:20:27 10° SW visible
01 Oct 7.1 01:18:13 10° ENE 01:20:18 12° NE 01:22:24 10° NNE visible
01 Oct 4.5 02:53:47 10° SSE 02:58:58 63° ENE 03:04:11 10° N visible
01 Oct 7.0 18:23:51 10° NNW 18:26:38 15° NW 18:29:25 10° W visible
02 Oct 5.5 02:26:33 10° SE 02:31:24 39° ENE 02:36:17 10° N visible
02 Oct 4.6 04:06:18 10° SSW 04:11:04 35° W 04:15:54 10° NNW visible
02 Oct 6.7 17:55:19 10° N 17:59:19 22° WNW 18:03:18 10° WSW visible
03 Oct 6.2 01:59:44 10° ESE 02:03:56 25° ENE 02:08:10 10° N visible
03 Oct 4.1 03:38:02 10° S 03:43:13 59° W 03:48:28 10° NNW visible
03 Oct 5.9 17:27:09 10° N 17:31:54 35° WNW 17:36:36 10° SW visible
04 Oct 6.8 01:33:26 10° E 01:36:36 16° NE 01:39:46 10° NNE visible
04 Oct 4.1 03:10:13 10° SSE 03:15:29 85° ENE 03:20:48 10° NNW visible
04 Oct 5.0 16:59:11 10° N 17:04:22 56° WNW 17:09:29 10° SW visible
04 Oct 7.3 18:41:30 10° NW 18:42:54 11° NW 18:44:18 10° WNW visible
05 Oct 7.3 01:08:31 10° ENE 01:09:22 10° NE 01:10:11 10° NE visible
05 Oct 4.9 02:42:46 10° SE 02:47:51 52° ENE 02:52:58 10° N visible
05 Oct 5.0 04:23:25 10° SSW 04:27:47 26° W 04:32:10 10° NW visible
05 Oct 6.9 18:12:19 10° NNW 18:15:39 17° NW 18:18:58 10° W visible
06 Oct 5.8 02:15:41 10° SE 02:20:20 33° ENE 02:25:00 10° N visible
06 Oct 4.4 03:54:52 10° S 03:59:51 43° W 04:04:53 10° NNW visible
06 Oct 6.4 17:43:57 10° N 17:48:17 26° WNW 17:52:35 10° WSW visible
07 Oct 6.5 01:49:03 10° ESE 01:52:55 21° ENE 01:56:47 10° N visible
07 Oct 4.0 03:26:47 10° S 03:32:02 71° WSW 03:37:21 10° NNW visible
07 Oct 5.6 17:15:53 10° N 17:20:48 41° WNW 17:25:42 10° SW visible
08 Oct 7.0 01:23:02 10° E 01:25:36 14° NE 01:28:10 10° NNE visible
08 Oct 4.3 02:59:06 10° SSE 03:04:20 71° ENE 03:09:37 10° N visible
08 Oct 5.4 04:40:50 10° SW 04:44:31 19° W 04:48:14 10° NW visible
08 Oct 4.6 16:47:59 10° N 16:53:14 67° WNW 16:58:26 10° SSW visible
08 Oct 7.1 18:29:33 10° NNW 18:31:55 13° NW 18:34:17 10° WNW visible
09 Oct 5.2 02:31:47 10° SE 02:36:45 43° ENE 02:41:44 10° N visible
09 Oct 4.8 04:11:52 10° SSW 04:16:31 31° W 04:21:12 10° NNW visible
09 Oct 6.7 18:00:51 10° NNW 18:04:37 20° WNW 18:08:22 10° WSW visible
